Location: Andershausen
(51.8462°N, 9.8595°E)
Time: 02:47:19
(UTC+00:00)

CARTOSAT-1 - Pass Details

Date: 18 November 2025
Orbit: 596 x 597 km, 97.5° (Epoch: 15 December)

Event Time Altitude Azimuth Distance (km) Brightness Sun altitude
Exits shadow 17:22:31 29° 42° (NE) 1,101 4.4 -17.7°
Drops below altitude 10° 17:25:26 10° 3° (N) 1,948 6.0 -18.1°
Sets 17:27:47 0° 354° (N) 2,855 7.0 -18.5°
